Probability
0 0 0 0 0 0 0 0 0 0 0 0 0 0 0 0 0 0 0 0 0 0 0 0 0 0 0 0 0 0 0 0 0 0 0 0 0 0 0 0 0 0 0 0
0 0 0 0 0 0 0 0 0 0 0 0 0 0 0 0 0 0 0 0 0 0 0 0 0 0 0 0 0 0 0 0 0 0 0 0 0 0 0 0 0 0 0 0
0 0 0 0 0 0 0 0 0 0 0 0 0 0 0 0 0 0 0 0 0 0 0 0 0 0 0 0 0 0 0 0 0 0 0 0 0 0 0 0 0 0 0 0
0 0 0 0 0 0 0 0 0 0 0 0 0 0 0 0 0 0 0 0 0 0 0 0 0 0 0 0 0 0 0 0 0 0 0 0 0 0 0 0 0 0 0 0
0 0 0 0 0 0 0 0 0 0 0 0 0 0 0 0 0 0 0 0 0 0 0 0 0 0 0 0 0 0 0 0 0 0 0 0 0 0 0 0 0 0 0 0
0 0 0 0 0 0 0 0 0 0 0 0 0 0 0 0 0 0 0 0 0 0 0 0 0 0 0 0 0 0 0 0 0 0 0 0 0 0 0 0 0 0 0 0
0 0 0 0 0 0 0 0 0 0 0 0 0 0 0 0 0 0 0 0 0 0 0 0 0 0 0 0 0 0 0 0 0 0 0 0 0 0 0 0 0 0 0 0
0 0 0 0 0 0 0 0 0 0 0 0 0 0 0 0 0 0 0 0 0 0 0 0 0 0 0 0 0 0 0 0 0 0 0 0 0 0 0 0 0 0 0 0
0 0 0 0 0 0 0 0 0 0 0 0 0 0 0 0 0 0 0 0 0 0 0 0 0 0 0 0 0 0 0 0 0 0 0 0 0 0 0 0 0 0 0 0
0 0 0 0 0 0 0 0 0 0 0 0 0 0 0 0 0 0 0 0 0 0 0 0 0 0 0 0 0 0 0 0 0 0 0 0 0 0 0 0 0 0 0 0
0 0 0 0 0 0 0 0 0 0 0 0 0 0 0 0 0 0 0 0 0 0 0 0 0 0 0 0 0 0 0 0 0 0 0 0 0 0 0 0 0 0 0 0
0 0 0 0 0 0 0 0 0 0 0 0 0 0 0 0 0 0 0 0 0 0 0 0 0 0 0 0 0 0 0 0 0 0 0 0 0 0 0 0 0 0 0 0
0 0 0 0 0 0 0 0 0 0 0 0 0 0 0 0 0 0 0 0 0 0 0 0 0 0 0 0 0 0 0 0 0 0 0 0 0 0 0 0 0 0 0 0
0 0 0 0 0 0 0 0 0 0 0 0 0 0 0 0 0 0 0 0 0 0 0 0 0 0 0 0 0 0 0 0 0 0 0 0 0 0 0 0 0 0 0 0
0 0 0 0 0 0 0 0 0 0 0 0 0 0 0 0 0 0 0 0 0 0 0 0 0 0 0 0 0 0 0 0 0 0 0 0 0 0 0 0 0 0 0 0
0 0 0 0 0 0 0 0 0 0 0 0 0 0 0 0 0 0 0 0 0 0 0 0 0 0 0 0 0 0 0 0 0 0 0 0 0 0 0 0 0 0 0 0
0 0 0 0 0 0 0 0 0 0 0 0 0 0 0 0 0 0 0 0 0 0 0 0 0 0 0 0 0 0 0 0 0 0 0 0 0 0 0 0 0 0 0 0
0 0 0 0 0 0 0 0 0 0 0 0 0 0 0 0 0 0 0 0 0 0 0 0 0 0 0 0 0 0 0 0 0 0 0 0 0 0 0 0 0 0 0 0
0 0 0 0 0 0 0 0 0 0 0 0 0 0 0 0 0 0 0 0 0 0 0 0 0 0 0 0 0 0 0 0 0 0 0 0 0 0 0 0 0 0 0 0
0 0 0 0 0 0 0 0 0 0 0 0 0 0 0 0 0 0 0 0 0 0 0 0 0 0 0 0 0 0 0 0 0 0 0 0 0 0 0 0 0 0 0 0
0 0 0 0 0 0 0 0 0 0 0 0 0 0 0 0 0 0 0 0 0 0 0 0 0 0 0 0 0 0 0 0 0 0 0 0 0 0 0 0 0 0 0 0
0 0 0 0 0 0 0 0 0 0 0 0 0 0 0 0 0 0 0 0 0 0 0 0 0 0 0 0 0 0 0 0 0 0 0 0 0 0 0 0 0 0 0 0
0 0 0 0 0 0 0 0 0 0 0 0 0 0 0 0 0 0 0 0 0 0 0 0 0 0 0 0 0 0 0 0 0 0 0 0 0 0 0 0 0 0 0 0
0 0 0 0 0 0 0 0 0 0 0 0 0 0 0 0 0 0 0 0 0 0 0 0 0 0 0 0 0 0 0 0 0 0 0 0 0 0 0 0 0 0 0 0
0 0 0 0 0 0 0 0 0 0 0 0 0 0 0 0 0 0 0 0 0 0 0 0 0 0 0 0 0 0 0 0 0 0 0 0 0 0 0 0 0 0 0 0
0 0 0 0 0 0 0 0 0 0 0 0 0 0 0 0 0 0 0 0 0 0 0 0 0 0 0 0 0 0 0 0 0 0 0 0 0 0 0 0 0 0 0 0
0 0 0 0 0 0 0 0 0 0 0 0 0 0 0 0 0 0 0 0 0 0 0 0 0 0 0 0 0 0 0 0 0 0 0 0 0 0 0 0 0 0 0 0
Wind_Speed
7 8 7 9 12 13 11 9 7 3 6 4 5 6 8 10 11 13 13 15 14 13 13 11 10 9 8 8 8 7 7 7 8 7 7 6 5 4 3 3 3 2 3 4
4 6 8 9 9 7 8 8 7 9 6 6 6 7 10 12 12 12 12 13 13 13 14 13 14 14 12 10 9 7 8 8 7 7 7 6 6 5 3 2 2 1 3 4
4 6 5 4 5 6 8 10 6 6 6 10 11 10 8 10 12 13 13 14 14 13 13 12 13 14 15 13 9 8 8 8 8 8 7 7 6 5 4 3 2 2 3 4
2 3 2 1 5 11 13 13 12 9 10 13 14 11 3 9 12 13 15 15 14 12 12 11 11 12 15 15 10 8 8 8 8 9 8 7 7 7 5 4 4 3 4 4
3 3 5 2 6 5 2 7 11 10 11 12 13 12 4 7 8 9 10 10 10 9 9 10 11 12 12 15 13 9 7 8 9 10 9 8 8 7 6 4 4 4 4 5
3 3 5 3 11 15 2 5 6 7 9 11 12 10 9 12 15 15 13 10 10 9 9 9 10 10 10 11 12 12 10 8 9 10 11 11 10 8 6 5 5 5 5 6
3 4 0 6 13 11 4 5 7 8 10 10 7 9 12 14 16 15 14 13 12 11 9 8 9 8 10 9 9 11 13 10 8 9 11 11 9 7 7 6 6 6 6 5
2 3 2 8 8 5 3 7 9 11 11 12 13 15 16 16 15 15 14 13 12 10 10 8 7 6 8 10 9 10 11 10 8 9 10 10 10 9 8 9 8 7 6 5
3 1 2 1 3 6 7 8 10 11 14 14 16 18 18 17 16 16 15 14 11 11 11 10 8 6 7 9 10 9 10 10 9 9 9 9 11 12 9 9 8 7 7 6
4 3 3 3 4 6 9 12 14 15 16 16 18 20 19 17 16 15 15 14 12 11 11 11 9 8 8 8 8 9 9 9 9 8 9 9 9 10 10 10 9 8 8 7
3 3 5 6 9 12 13 13 15 16 16 16 17 19 19 16 15 15 14 13 11 10 11 11 10 9 10 9 7 8 9 8 8 8 9 10 10 11 13 12 13 11 9 9
2 5 6 10 13 15 15 14 16 15 14 13 14 16 17 15 13 13 13 13 12 11 11 11 9 9 9 9 8 7 7 7 6 7 7 8 9 9 13 11 16 17 14 12
6 8 11 14 14 13 13 14 14 13 13 14 13 13 15 13 11 11 12 13 13 13 12 11 9 9 9 9 8 8 8 7 6 7 7 7 9 10 9 6 11 15 16 17
8 9 10 10 11 12 13 14 13 13 13 14 14 14 14 14 13 13 13 13 13 13 12 11 10 10 9 8 8 8 8 8 7 6 7 7 9 10 11 11 9 6 8 13
8 8 10 11 12 13 13 13 15 15 15 15 13 14 15 16 16 16 15 14 14 13 12 11 10 10 9 8 8 9 7 6 5 5 7 6 8 9 10 11 10 8 5 4
9 9 11 12 14 15 15 16 16 15 15 15 14 16 18 19 20 19 17 16 15 15 12 10 10 10 9 8 8 7 7 11 8 5 6 6 7 9 10 10 10 9 9 8
10 11 12 15 16 16 15 15 15 15 16 18 20 22 22 22 22 21 19 17 16 16 14 12 11 10 9 9 8 7 6 7 9 6 6 6 7 9 10 11 10 10 9 11
10 11 12 15 17 18 17 15 14 16 18 21 23 23 23 23 22 21 20 18 17 16 14 13 11 10 10 9 7 6 6 5 5 5 6 6 7 9 10 11 11 11 8 9
12 12 13 14 15 14 15 14 14 17 19 21 23 23 23 22 21 19 18 16 16 14 12 11 14 12 10 10 10 6 6 6 6 5 6 7 9 9 10 11 11 10 11 11
11 12 13 14 13 13 14 15 17 18 20 22 23 23 22 21 19 17 15 13 10 9 8 9 9 8 9 9 12 6 7 7 6 6 6 6 9 10 11 11 12 11 11 11
12 13 13 13 14 14 14 16 18 21 22 23 23 23 22 20 16 13 11 10 8 7 7 9 8 7 7 8 10 6 6 6 6 6 6 7 9 10 11 12 12 11 10 10
12 11 12 14 14 15 16 16 18 21 23 23 24 22 20 17 14 11 9 7 8 8 6 5 6 8 9 9 6 6 6 7 6 5 6 7 9 10 11 12 11 11 10 9
10 10 11 13 13 15 18 19 20 21 22 24 23 22 19 15 9 7 8 7 6 8 7 6 8 12 13 7 5 5 6 6 5 5 5 7 8 9 10 11 11 11 10 9
9 10 12 12 13 15 18 21 22 19 21 21 19 20 17 12 9 6 6 10 11 11 7 8 13 14 11 5 4 4 4 4 3 4 5 7 8 9 9 10 10 10 10 11
10 10 10 13 14 13 15 19 20 20 20 17 19 19 14 9 9 9 9 10 11 11 8 9 12 10 5 3 3 3 3 2 3 4 5 6 7 8 9 9 9 9 9 9
9 9 9 10 11 11 13 14 15 16 16 17 16 15 13 10 10 9 9 10 12 11 8 5 5 4 1 1 1 1 2 3 3 3 4 6 8 8 8 8 10 8 8 8
8 8 9 11 12 12 13 14 15 17 17 17 18 16 14 12 11 11 12 10 10 8 6 3 2 1 1 1 2 2 2 2 2 4 5 6 7 7 8 9 7 7 7 7
Wind_Direction
224 246 264 282 290 291 283 257 226 140 103 39 8 25 36 30 26 25 21 17 12 5 357 346 330 300 263 238 221 200 190 194 204 205 202 201 209 226 255 287 304 345 31 49
284 276 287 293 313 341 19 22 80 95 65 358 350 34 39 27 25 21 12 6 1 359 357 352 342 326 297 262 233 203 194 199 202 197 196 196 196 199 210 248 287 34 82 75
272 301 346 357 2 80 69 27 42 58 20 356 358 16 38 23 18 10 360 355 352 348 345 342 339 338 324 289 253 212 201 198 192 191 195 196 186 181 189 205 211 161 129 104
208 4 304 219 55 99 96 54 36 38 18 8 349 329 47 34 9 349 341 339 337 332 330 331 332 335 338 328 291 240 208 197 192 188 193 190 180 180 186 186 190 177 156 133
148 206 256 119 25 353 149 70 27 22 7 355 340 323 293 357 336 313 308 308 306 307 309 314 323 329 334 343 332 294 245 209 196 189 188 185 185 184 180 176 185 181 162 146
164 215 247 335 336 326 70 90 21 0 336 329 339 334 307 318 318 312 308 305 304 305 310 314 317 321 327 335 342 328 300 255 213 191 186 188 188 180 170 170 180 171 163 157
255 250 107 342 327 341 12 314 305 297 295 298 289 264 277 291 292 288 288 290 292 293 295 295 304 317 320 321 325 326 318 293 241 204 193 188 182 173 166 166 167 170 165 162
347 307 328 355 21 51 248 255 265 278 282 279 272 271 274 277 278 279 280 280 281 280 278 277 281 300 309 309 307 316 323 312 271 224 204 191 178 177 172 168 170 173 166 163
58 85 156 109 156 212 230 256 269 272 274 274 276 277 278 278 278 279 276 275 274 272 275 276 272 271 286 295 303 310 317 320 299 247 215 193 183 181 175 174 176 178 173 174
88 122 212 233 249 250 248 255 267 272 276 278 278 280 282 282 281 278 274 272 270 268 270 273 268 261 258 268 283 294 301 308 308 275 228 205 191 184 182 182 182 182 180 179
64 330 311 281 283 281 281 282 287 289 287 285 286 289 289 289 286 283 280 276 270 265 266 268 267 263 262 261 260 271 284 296 303 284 241 211 197 191 188 191 188 182 185 179
266 259 261 275 279 287 294 294 294 295 295 295 293 292 292 290 287 286 286 281 275 269 264 263 258 257 263 263 252 250 270 287 296 292 261 221 199 194 201 190 188 185 182 178
234 254 261 274 283 289 290 289 291 291 292 296 294 290 291 290 288 286 287 286 280 274 267 257 250 251 259 264 252 241 250 266 284 291 271 231 198 182 178 186 185 184 183 183
264 278 286 284 285 288 289 290 289 288 286 284 287 287 288 289 289 288 288 286 285 281 273 262 253 250 252 254 248 242 244 258 272 290 282 237 200 183 176 172 168 173 190 191
291 290 287 295 297 297 295 294 295 295 291 288 286 289 293 293 292 289 287 286 286 284 280 272 263 256 254 252 250 246 243 247 257 285 285 247 200 179 173 171 169 158 138 154
307 306 302 303 303 302 302 300 299 296 296 300 303 303 300 297 293 290 287 282 278 276 273 267 263 261 258 256 255 250 242 248 254 277 283 247 199 177 170 166 161 160 163 153
321 314 311 311 310 308 304 302 302 305 311 313 312 309 305 300 296 292 287 281 274 271 267 260 259 260 259 257 257 252 240 244 253 269 269 239 199 179 168 163 163 166 169 168
298 294 296 300 305 309 311 310 311 315 316 314 313 310 306 302 298 295 291 286 278 271 264 258 255 257 257 259 258 246 234 231 233 248 262 238 198 177 166 162 163 162 158 160
296 295 299 303 307 311 313 314 316 317 315 314 312 308 304 301 297 295 292 287 280 273 266 257 257 258 257 260 265 242 230 230 237 246 253 224 192 173 164 161 162 160 156 158
301 302 309 314 316 317 319 319 318 317 316 315 311 308 307 305 304 302 300 292 280 270 266 260 258 259 259 262 265 243 230 229 237 249 243 210 181 169 164 162 162 160 159 163
310 314 321 323 322 321 321 319 320 320 318 316 313 312 310 310 310 309 305 303 295 281 270 264 260 258 256 255 257 239 229 230 240 242 224 193 172 163 160 160 162 164 165 167
317 321 322 322 323 322 322 322 322 321 320 318 317 316 315 316 315 314 308 296 293 294 287 272 263 262 264 260 243 231 232 240 238 220 197 174 160 156 155 156 160 165 168 168
318 316 317 320 321 319 322 326 327 325 321 321 320 320 320 317 312 308 310 301 299 297 292 276 269 272 275 264 239 235 237 235 217 193 170 158 153 151 152 154 158 163 168 169
318 318 319 319 321 324 327 328 327 324 320 320 320 323 323 320 316 296 276 284 288 290 285 278 276 277 272 251 235 231 231 215 180 154 143 144 147 149 152 156 159 163 168 170
319 321 323 328 330 328 325 325 325 324 324 323 324 327 326 320 317 315 308 298 294 292 286 283 283 281 264 227 220 217 204 172 133 127 134 141 148 151 154 156 160 162 166 172
322 325 327 324 323 323 326 326 324 323 324 325 327 327 326 325 323 322 318 310 304 300 295 291 293 290 270 204 162 162 139 121 116 129 146 150 152 153 154 157 158 163 167 173
326 329 330 331 332 331 329 326 323 322 322 324 326 326 328 330 331 329 324 318 314 309 306 305 304 316 57 88 86 90 104 116 128 138 146 146 149 152 157 159 163 165 169 175